Location: Arrakis Observatory
(44.1122°N, 95.7153°W)
Time: 14:17:36
(UTC-05:00)

Amateur Radio Satellites - All Passes

Search period start: 04 May 2016 13:47
Search period end: 05 May 2016 13:47
Location: Arrakis Observatory, 44.1122°N, 95.7153°W

Satellite Date Start Highest point End Downlink Frequencies (MHz)
Time Altitude Azimuth
UKube-1 04 May 13:47:37 13:51:53 54° 288° (WNW) 13:56:06 .
50 SAT 04 May 13:52:52 13:55:47 23° 292° (WNW) 13:58:41 437.505
VELOX 1 04 May 13:54:04 13:58:09 35° 291° (WNW) 14:02:12 145.980
O/OREOS (USA 219) 04 May 14:00:54 14:02:44 12° 97° (E) 14:04:32 437.305
Cosmos 2499 04 May 14:05:04 14:12:11 41° 272° (W) 14:19:47 435.465 / 435.565
SO-50 04 May 14:08:15 14:10:42 14° 30° (NNE) 14:13:08 436.795
AO-7 04 May 14:11:37 14:17:31 22° 49° (NE) 14:23:25 29.400- 29.500
SPROUT 04 May 14:14:11 14:18:22 50° 288° (WNW) 14:22:30 437.525
AO-85 04 May 14:19:18 14:24:22 38° 314° (NW) 14:29:21 145.980
AISAT 04 May 14:27:21 14:30:17 17° 298° (WNW) 14:33:12 437.250
BEESAT 04 May 14:33:21 14:36:08 15° 91° (E) 14:38:54 436.000
TISAT 1 04 May 14:41:16 14:45:31 86° 289° (WNW) 14:49:44 437.305
ITAMSAT 1 04 May 14:58:01 15:03:06 60° 71° (ENE) 15:08:12 435.822/435.867
PHONESAT 2.4 04 May 15:01:34 15:03:12 13° 207° (SSW) 15:04:50 2401.200-2431.200
ISS 04 May 15:04:41 15:06:09 12° 228° (SW) 15:07:36 145.825
JAS-2 04 May 15:15:19 15:19:26 18° 275° (W) 15:23:54 435.910
Oscar 19 04 May 15:16:39 15:20:14 19° 269° (W) 15:23:51 437.125/150
Gurwin Techsat 1B 04 May 15:24:31 15:29:24 37° 263° (W) 15:34:19 435.225
PCSat 04 May 15:27:11 15:32:02 34° 111° (ESE) 15:36:55 145.827
ITUPSAT 1 04 May 15:28:13 15:32:53 51° 100° (E) 15:37:32 437.325
CUSAT 1 04 May 15:36:24 15:39:59 58° 95° (E) 15:44:44 437.405
SWISSCUBE 04 May 15:36:34 15:41:20 70° 102° (ESE) 15:46:05 437.505
O/OREOS (USA 219) 04 May 15:36:53 15:41:29 73° 295° (WNW) 15:46:05 437.305
SO-50 04 May 15:47:30 15:52:13 60° 52° (NE) 15:56:46 436.795
AO-7 04 May 16:00:53 16:09:10 84° 70° (ENE) 16:17:30 29.400- 29.500
AO-85 04 May 16:04:36 16:06:22 11° 336° (NNW) 16:08:08 145.980
KKS-1 04 May 16:07:26 16:10:26 18° 92° (E) 16:13:26 437.445
BEESAT 04 May 16:09:37 16:14:20 62° 287° (WNW) 16:19:02 436.000
STARS 04 May 16:19:57 16:21:40 12° 89° (E) 16:23:23 437.465
MOZHAYETS 4 04 May 16:24:14 16:27:23 18° 92° (E) 16:30:31
Cosmos 2491 04 May 16:33:12 16:38:58 19° 58° (ENE) 16:44:41 435.465 / 435.565
HORYU 2 04 May 16:33:26 16:37:29 35° 69° (ENE) 16:41:33 437.375
DANDE 04 May 16:37:05 16:40:05 73° 282° (WNW) 16:43:59 436.750
ITAMSAT 1 04 May 16:39:28 16:42:58 18° 269° (W) 16:46:29 435.822/435.867
ITUPSAT 1 04 May 17:06:56 17:10:22 20° 297° (WNW) 17:13:47 437.325
PCSat 04 May 17:10:17 17:15:21 39° 310° (NW) 17:20:28 145.827
NOAA 18 04 May 17:11:27 17:15:14 19° 59° (ENE) 17:19:01 137.9125
SWISSCUBE 04 May 17:15:51 17:18:35 15° 300° (WNW) 17:21:18 437.505
NOAA 15 04 May 17:17:41 17:21:40 22° 62° (ENE) 17:25:41 137.62
O/OREOS (USA 219) 04 May 17:20:33 17:21:45 11° 315° (NW) 17:22:56 437.305
CUSAT 1 04 May 17:20:59 17:23:01 13° 303° (WNW) 17:25:18 437.405
Cubesat XI-IV 04 May 17:27:17 17:30:51 19° 60° (ENE) 17:34:26 437.490
SO-50 04 May 17:29:05 17:32:12 18° 250° (WSW) 17:35:16 436.795
BRITE-PL 04 May 17:36:06 17:39:36 19° 60° (ENE) 17:43:15 437.365/2234.400
KKS-1 04 May 17:42:58 17:47:16 48° 289° (WNW) 17:51:33 437.445
AUBIESAT-1 04 May 17:45:43 17:46:26 10° 53° (NE) 17:47:08 437.475
STARS 04 May 17:54:06 17:58:30 69° 287° (WNW) 18:02:51 437.465
AO-7 04 May 17:56:53 18:02:52 22° 269° (W) 18:08:54 29.400- 29.500
MOZHAYETS 4 04 May 18:00:25 18:04:49 48° 288° (WNW) 18:09:13
HORYU 2 04 May 18:10:29 18:14:06 24° 265° (W) 18:17:44 437.375
CUBESAT XI-V 04 May 18:14:01 18:18:07 29° 95° (E) 18:22:11 437.345
CUTE-I 04 May 18:20:12 18:25:19 50° 70° (ENE) 18:30:27 437.470
HO-68 04 May 18:21:49 18:24:37 13° 46° (NE) 18:27:25 435.675
BEESAT 3 04 May 18:23:16 18:26:52 35° 117° (ESE) 18:30:30 437.485
DOVE 4 04 May 18:24:14 18:27:08 15° 59° (ENE) 18:30:04 437.250
Cosmos 2491 04 May 18:28:32 18:37:24 80° 81° (E) 18:46:11 435.465 / 435.565
BEESAT 2 04 May 18:34:43 18:38:09 28° 115° (ESE) 18:41:35 435.950
GOMX 1 04 May 18:36:13 18:40:48 34° 67° (ENE) 18:45:37 467.674
LilacSat-2 04 May 18:41:12 18:45:04 66° 74° (ENE) 18:48:55 437.200
YUBILEINY 04 May 18:41:29 18:49:24 41° 86° (E) 18:57:18 435.215
NOAA 18 04 May 18:49:52 18:55:21 69° 257° (WSW) 19:00:51 137.9125
NOAA 15 04 May 18:55:55 19:01:04 54° 260° (W) 19:06:16 137.62
M-CUBED/EXP-1 PRIME 04 May 18:58:40 19:03:18 58° 68° (ENE) 19:07:50 437.505
PCSat 04 May 18:59:24 19:00:22 10° 333° (NNW) 19:01:19 145.827
Cubesat XI-IV 04 May 19:05:05 19:10:23 68° 258° (WSW) 19:15:43 437.490
BRITE-PL 04 May 19:12:37 19:17:28 62° 260° (W) 19:22:46 437.365/2234.400
AUBIESAT-1 04 May 19:15:32 19:20:10 72° 69° (ENE) 19:24:41 437.475
AO-85 04 May 19:30:22 19:32:28 12° 26° (NNE) 19:34:30 145.980
CANX-2 04 May 19:50:21 19:53:55 27° 68° (ENE) 19:57:29 2200.000
CUBESAT XI-V 04 May 19:51:19 19:55:29 32° 292° (WNW) 19:59:38 437.345
DOVE 4 04 May 19:58:54 20:04:03 85° 254° (WSW) 20:09:25 437.250
BEESAT 3 04 May 20:01:20 20:04:39 25° 315° (NW) 20:08:00 437.485
CUTE-I 04 May 20:01:32 20:05:38 22° 267° (W) 20:09:46 437.470
HO-68 04 May 20:03:54 20:10:51 57° 67° (ENE) 20:17:49 435.675
BEESAT 2 04 May 20:12:22 20:15:56 31° 313° (NW) 20:19:32 435.950
GOMX 1 04 May 20:14:13 20:18:49 34° 266° (W) 20:23:41 467.674
Oscar 11 04 May 20:20:39 20:20:57 10° 59° (ENE) 20:21:13 145.826/435.025
STRAND 1 04 May 20:21:23 20:26:20 48° 99° (E) 20:31:15 437.568
CUTE 1.7 + AOD 2 04 May 20:22:07 20:26:12 52° 73° (ENE) 20:30:18 437.475
AIST 2 04 May 20:23:26 20:27:00 29° 115° (ESE) 20:30:35 435.215
Cosmos 2491 04 May 20:26:50 20:33:10 23° 282° (WNW) 20:39:30 435.465 / 435.565
CINEMA 3 04 May 20:27:05 20:32:04 65° 74° (ENE) 20:37:01 145.822/145.860
FUNcube-1 04 May 20:33:42 20:35:32 12° 61° (ENE) 20:37:22 145.935
M-CUBED/EXP-1 PRIME 04 May 20:35:00 20:38:06 17° 263° (W) 20:41:11 437.505
YUBILEINY 04 May 20:37:44 20:46:03 47° 287° (WNW) 20:54:25 435.215
COMPASS 1 04 May 20:45:00 20:48:59 48° 73° (ENE) 20:52:59 437.405
SEEDS 04 May 20:45:26 20:49:35 69° 75° (ENE) 20:53:44 437.485
UWE-3 04 May 20:49:03 20:52:54 27° 67° (ENE) 20:56:41 435.000/436.395/437.385
Cosmos 2504 04 May 20:51:17 20:58:25 66° 94° (E) 21:05:31 435.465 / 435.565
AUBIESAT-1 04 May 20:52:40 20:55:00 14° 265° (W) 20:57:20 437.475
CUBEBUG 2 04 May 21:00:18 21:04:51 48° 72° (ENE) 21:09:18 437.445
AO-85 04 May 21:09:30 21:14:15 48° 49° (NE) 21:18:33 145.980
AAUSAT CUBESAT 2 04 May 21:13:33 21:17:39 83° 78° (ENE) 21:21:48 437.432
ZACube-1 04 May 21:14:37 21:18:37 32° 69° (ENE) 21:22:35 437.345
CANX-2 04 May 21:26:06 21:29:43 28° 265° (W) 21:33:22 2200.000
RS-15 04 May 21:40:45 21:51:30 54° 112° (ESE) 22:02:49 29.354- 29.394
DOVE 4 04 May 21:41:06 21:42:32 11° 275° (W) 21:44:00 437.250
Oscar 11 04 May 21:52:04 21:56:22 89° 85° (E) 22:00:43 145.826/435.025
HO-68 04 May 21:52:48 21:58:54 30° 266° (W) 22:05:02 435.675
PRISM 04 May 21:53:32 21:57:44 90° 103° (ESE) 22:01:55 437.425
HUMSAT D 04 May 21:59:30 22:02:56 25° 67° (ENE) 22:06:20 437.325/437.525
CUTE 1.7 + AOD 2 04 May 22:00:00 22:02:22 15° 270° (W) 22:04:43 437.475
STRAND 1 04 May 22:01:12 22:05:12 24° 297° (WNW) 22:09:12 437.568
AIST 2 04 May 22:01:41 22:05:25 32° 313° (NW) 22:09:11 435.215
CINEMA 3 04 May 22:06:30 22:09:36 16° 271° (W) 22:12:42 145.822/145.860
FUNcube-1 04 May 22:06:42 22:11:12 78° 259° (W) 22:15:38 145.935
DELFI C3 04 May 22:09:16 22:13:10 67° 76° (ENE) 22:17:06 145.870
COMPASS 1 04 May 22:22:27 22:24:50 15° 269° (W) 22:27:14 437.405
SEEDS 04 May 22:24:46 22:25:45 11° 272° (W) 22:26:44 437.485
UWE-3 04 May 22:25:02 22:29:14 34° 264° (W) 22:33:23 435.000/436.395/437.385
PCSat 04 May 22:32:02 22:33:12 11° 28° (NNE) 22:34:22 145.827
CUBEBUG 2 04 May 22:38:17 22:41:40 19° 268° (W) 22:45:02 437.445
ESTCUBE 1 04 May 22:41:36 22:44:23 16° 62° (ENE) 22:47:11 437.505/2401.250
CUBEBUG 1 04 May 22:45:28 22:47:22 13° 60° (ENE) 22:49:16 437.445
Cosmos 2504 04 May 22:46:52 22:52:27 24° 295° (WNW) 22:58:02 435.465 / 435.565
AO-85 04 May 22:50:46 22:54:20 22° 250° (WSW) 22:57:40 145.980
ZACube-1 04 May 22:51:08 22:54:55 26° 265° (W) 22:58:40 437.345
50 SAT 04 May 22:59:55 23:02:10 16° 65° (ENE) 23:04:26 437.505
UNISAT 6 04 May 23:01:11 23:04:35 22° 94° (E) 23:07:56 437.425
DX 1 04 May 23:06:31 23:09:34 19° 63° (ENE) 23:12:39 434.975-435.025
UKube-1 04 May 23:09:10 23:11:53 17° 62° (ENE) 23:14:38 .
VELOX 1 04 May 23:16:43 23:20:25 26° 66° (ENE) 23:24:07 145.980
TIGRISAT 04 May 23:17:36 23:21:27 31° 96° (E) 23:25:15 435.000
HUMSAT D 04 May 23:34:43 23:38:27 30° 264° (W) 23:42:10 437.325/437.525
SPROUT 04 May 23:34:57 23:37:31 16° 63° (ENE) 23:40:06 437.525
ANTELSAT 04 May 23:42:44 23:47:02 62° 101° (E) 23:51:14 437.575/2403.000
AISAT 04 May 23:48:20 23:52:42 57° 72° (ENE) 23:57:06 437.250
RS-15 04 May 23:52:52 00:04:01 55° 317° (NW) 00:15:50 29.354- 29.394
NANOSAT C BR1 04 May 23:53:05 23:55:34 15° 91° (E) 23:58:03 145.865
AIST 1 04 May 23:59:55 00:02:57 19° 86° (E) 00:06:00
O/OREOS (USA 219) 05 May 00:06:33 00:10:36 31° 58° (ENE) 00:14:36 437.305
PCSat 05 May 00:13:03 00:18:11 40° 50° (NE) 00:23:16 145.827
ESTCUBE 1 05 May 00:16:21 00:20:45 57° 259° (W) 00:25:12 437.505/2401.250
CUBEBUG 1 05 May 00:18:39 00:23:02 76° 257° (WSW) 00:27:29 437.445
GONETS M04 05 May 00:26:00 00:34:10 44° 87° (E) 00:42:20
CUSAT 1 05 May 00:26:19 00:29:50 14° 58° (ENE) 00:33:32 437.405
50 SAT 05 May 00:32:16 00:35:41 37° 262° (W) 00:39:06 437.505
JAS-2 05 May 00:37:19 00:40:41 13° 82° (E) 00:44:02 435.910
UNISAT 6 05 May 00:37:29 00:41:24 34° 291° (WNW) 00:45:16 437.425
DX 1 05 May 00:41:14 00:45:26 46° 260° (W) 00:49:41 434.975-435.025
DUCHIFAT 1 05 May 00:43:08 00:47:15 50° 100° (E) 00:51:19 145.980
UKube-1 05 May 00:43:19 00:47:32 53° 259° (W) 00:51:48 .
QB50P2 05 May 00:46:44 00:50:58 64° 101° (E) 00:55:08 145.880/145.840
POLYITAN 1 05 May 00:48:56 00:53:10 65° 102° (ESE) 00:57:20 437.675
POPSAT HIP 1 05 May 00:50:53 00:55:07 67° 101° (ESE) 00:59:18 437.405
Cosmos 2499 05 May 00:51:50 00:57:47 30° 85° (E) 01:03:47 435.465 / 435.565
VELOX 1 05 May 00:52:46 00:56:45 33° 263° (W) 01:00:47 145.980
QB50P1 05 May 00:53:52 00:58:08 74° 103° (ESE) 01:02:20 145.935-145.965
TIGRISAT 05 May 00:54:30 00:58:02 25° 294° (WNW) 01:01:31 435.000
SPROUT 05 May 01:08:48 01:13:02 56° 260° (W) 01:17:19 437.525
SWISSCUBE 05 May 01:10:00 01:11:59 13° 58° (ENE) 01:13:59 437.505
BUGSAT 1 05 May 01:15:15 01:19:24 55° 100° (E) 01:23:26 437.445
ANTELSAT 05 May 01:20:59 01:23:14 14° 299° (WNW) 01:25:29 437.575/2403.000
AISAT 05 May 01:26:59 01:29:32 15° 269° (W) 01:32:07 437.250
NANOSAT C BR1 05 May 01:27:31 01:31:37 50° 288° (WNW) 01:35:40 145.865
DANDE 05 May 01:28:42 01:33:22 19° 65° (ENE) 01:38:34 436.750
TISAT 1 05 May 01:33:55 01:38:11 84° 76° (ENE) 01:42:28 437.305
AIST 1 05 May 01:36:11 01:40:14 39° 284° (WNW) 01:44:21
BEESAT 05 May 01:40:58 01:44:35 22° 64° (ENE) 01:48:13 436.000
O/OREOS (USA 219) 05 May 01:46:03 01:49:55 29° 256° (WSW) 01:53:46 437.305
Oscar 19 05 May 01:46:30 01:50:03 18° 91° (E) 01:53:34 437.125/150
PCSat 05 May 01:56:39 02:01:29 33° 249° (WSW) 02:06:16 145.827
CUSAT 1 05 May 02:05:59 02:13:15 61° 76° (ENE) 02:21:13 437.405
RS-15 05 May 02:10:13 02:20:02 29° 349° (N) 02:30:12 29.354- 29.394
JAS-2 05 May 02:19:11 02:27:01 67° 101° (ESE) 02:34:43 435.910
DUCHIFAT 1 05 May 02:19:54 02:22:34 16° 297° (WNW) 02:25:13 145.980
GONETS M04 05 May 02:22:37 02:30:58 45° 288° (WNW) 02:39:21
QB50P2 05 May 02:24:10 02:26:15 14° 299° (WNW) 02:28:20 145.880/145.840
POLYITAN 1 05 May 02:26:25 02:28:26 13° 299° (WNW) 02:30:26 437.675
POPSAT HIP 1 05 May 02:28:24 02:30:22 13° 299° (WNW) 02:32:20 437.405
QB50P1 05 May 02:31:41 02:33:19 12° 300° (WNW) 02:34:56 145.935-145.965
ITUPSAT 1 05 May 02:36:14 02:40:58 71° 74° (ENE) 02:45:43 437.325
BEESAT 3 05 May 02:39:03 02:42:44 36° 48° (NE) 02:46:23 437.485
Cosmos 2499 05 May 02:43:45 02:50:32 49° 285° (WNW) 02:57:27 435.465 / 435.565
SWISSCUBE 05 May 02:44:19 02:49:05 87° 255° (WSW) 02:53:52 437.505
BEESAT 2 05 May 02:51:05 02:54:39 30° 46° (NE) 02:58:11 435.950
BUGSAT 1 05 May 02:51:54 02:54:19 15° 298° (WNW) 02:56:42 437.445
KKS-1 05 May 03:06:54 03:10:13 21° 64° (ENE) 03:13:34 437.445
DANDE 05 May 03:10:01 03:16:48 87° 80° (E) 03:25:00 436.750
ITAMSAT 1 05 May 03:10:17 03:13:51 18° 92° (E) 03:17:24 435.822/435.867
BEESAT 05 May 03:17:32 03:22:05 45° 261° (W) 03:26:40 436.000
STARS 05 May 03:17:57 03:20:23 15° 61° (ENE) 03:22:49 437.465
Oscar 19 05 May 03:24:38 03:29:46 60° 288° (WNW) 03:34:51 437.125/150
MOZHAYETS 4 05 May 03:27:38 03:31:04 21° 65° (ENE) 03:34:30
Gurwin Techsat 1B 05 May 03:38:32 03:43:53 79° 104° (ESE) 03:49:11 435.225
CUSAT 1 05 May 03:48:41 03:55:04 32° 272° (W) 04:01:55 437.405
AO-7 05 May 04:01:38 04:08:13 25° 93° (E) 04:14:44 29.400- 29.500
JAS-2 05 May 04:04:53 04:11:26 31° 300° (WNW) 04:18:02 435.910
ITUPSAT 1 05 May 04:17:01 04:19:19 13° 270° (W) 04:21:36 437.325
BEESAT 3 05 May 04:17:06 04:20:15 23° 246° (WSW) 04:23:23 437.485
RS-15 05 May 04:26:39 04:37:24 34° 24° (NNE) 04:48:19 29.354- 29.394
BEESAT 2 05 May 04:28:59 04:32:27 29° 244° (WSW) 04:35:54 435.950
KKS-1 05 May 04:42:13 04:46:30 43° 261° (W) 04:50:49 437.445
AIST 2 05 May 04:42:58 04:46:44 32° 47° (NE) 04:50:29 435.215
ITAMSAT 1 05 May 04:48:36 04:53:42 59° 288° (WNW) 04:58:48 435.822/435.867
YUBILEINY 05 May 04:49:41 04:56:04 22° 61° (ENE) 05:02:26 435.215
STARS 05 May 04:51:49 04:56:13 65° 258° (WSW) 05:00:40 437.465
DANDE 05 May 04:54:21 04:59:09 20° 274° (W) 05:04:30 436.750
MOZHAYETS 4 05 May 05:03:37 05:07:57 43° 262° (W) 05:12:19
CUBESAT XI-V 05 May 05:18:44 05:22:50 33° 68° (ENE) 05:26:58 437.345
Gurwin Techsat 1B 05 May 05:20:00 05:23:11 16° 301° (WNW) 05:26:21 435.225
Cosmos 2491 05 May 05:38:39 05:44:10 19° 76° (ENE) 05:49:42 435.465 / 435.565
AO-7 05 May 05:53:24 06:01:44 76° 292° (WNW) 06:10:03 29.400- 29.500
HORYU 2 05 May 05:58:49 06:03:11 56° 101° (E) 06:07:31 437.375
STRAND 1 05 May 06:03:37 06:05:24 12° 56° (NE) 06:07:11 437.568
SO-50 05 May 06:05:06 06:07:39 14° 108° (ESE) 06:10:12 436.795
ISS 05 May 06:09:29 06:10:43 12° 131° (SE) 06:11:56 145.825
AIST 2 05 May 06:21:35 06:25:08 28° 245° (WSW) 06:28:42 435.215
CUTE-I 05 May 06:36:42 06:40:12 17° 91° (E) 06:43:40 437.470
RS-15 05 May 06:39:53 06:52:13 78° 53° (NE) 07:04:35 29.354- 29.394
Cosmos 2504 05 May 06:41:07 06:47:22 26° 67° (ENE) 06:53:54 435.465 / 435.565
YUBILEINY 05 May 06:45:21 06:54:06 87° 263° (W) 07:02:51 435.215
CUBESAT XI-V 05 May 06:56:20 07:00:14 27° 266° (W) 07:04:10 437.345
NOAA 15 05 May 07:09:22 07:14:33 50° 100° (E) 07:19:42 137.62
NOAA 18 05 May 07:10:27 07:15:40 44° 99° (E) 07:20:51 137.9125
BRITE-PL 05 May 07:15:40 07:21:08 44° 97° (E) 07:26:25 437.365/2234.400
Cubesat XI-IV 05 May 07:20:50 07:25:54 43° 99° (E) 07:30:57 437.490
Cosmos 2491 05 May 07:30:49 07:39:39 87° 97° (E) 07:48:33 435.465 / 435.565
HORYU 2 05 May 07:36:33 07:39:18 16° 298° (WNW) 07:42:03 437.375
STRAND 1 05 May 07:38:39 07:43:43 80° 76° (ENE) 07:48:51 437.568
SO-50 05 May 07:42:34 07:47:30 81° 305° (NW) 07:52:27 436.795
ISS 05 May 07:43:26 07:46:41 85° 151° (SSE) 07:49:58 145.825
LilacSat-2 05 May 07:47:22 07:51:12 83° 104° (ESE) 07:54:58 437.200
AO-7 05 May 07:47:40 07:53:13 20° 313° (NW) 07:58:46 29.400- 29.500
DOVE 4 05 May 07:57:22 08:01:35 26° 92° (E) 08:05:37 437.250
M-CUBED/EXP-1 PRIME 05 May 08:12:15 08:15:38 28° 100° (E) 08:18:47 437.505
GOMX 1 05 May 08:14:00 08:19:28 74° 101° (ESE) 08:24:37 467.674
CUTE-I 05 May 08:15:25 08:20:42 65° 288° (WNW) 08:25:57 437.470
CINEMA 3 05 May 08:22:35 08:24:46 13° 88° (E) 08:26:53 145.822/145.860
AUBIESAT-1 05 May 08:28:25 08:31:57 35° 102° (ESE) 08:35:15 437.475
SEEDS 05 May 08:30:52 08:31:19 10° 88° (E) 08:31:47 437.485
Cosmos 2504 05 May 08:33:44 08:41:17 67° 267° (W) 08:49:24 435.465 / 435.565
PRISM 05 May 08:44:09 08:48:13 78° 73° (ENE) 08:52:20 437.425
YUBILEINY 05 May 08:44:10 08:49:35 18° 284° (WNW) 08:55:00 435.215
NOAA 15 05 May 08:49:48 08:54:00 24° 298° (WNW) 08:58:11 137.62
NOAA 18 05 May 08:51:32 08:56:07 28° 297° (WNW) 09:00:40 137.9125
RS-15 05 May 08:53:18 09:03:40 34° 256° (WSW) 09:14:03 29.354- 29.394
BRITE-PL 05 May 08:54:28 08:59:21 30° 295° (WNW) 09:04:09 437.365/2234.400
AAUSAT CUBESAT 2 05 May 08:56:27 08:57:54 12° 89° (E) 08:59:20 437.432
Cubesat XI-IV 05 May 09:01:20 09:05:46 28° 296° (WNW) 09:10:12 437.490
CANX-2 05 May 09:08:53 09:12:55 43° 98° (E) 09:16:57 2200.000
PHONESAT 2.4 05 May 09:11:56 09:13:30 13° 153° (SSE) 09:15:04 2401.200-2431.200
HO-68 05 May 09:17:17 09:24:14 51° 100° (E) 09:31:10 435.675
ISS 05 May 09:20:38 09:23:27 26° 347° (NNW) 09:26:17 145.825
STRAND 1 05 May 09:21:13 09:23:31 13° 271° (W) 09:25:49 437.568
SO-50 05 May 09:25:29 09:28:46 17° 326° (NW) 09:32:02 436.795
Cosmos 2491 05 May 09:31:11 09:37:44 22° 299° (WNW) 09:44:19 435.465 / 435.565
DOVE 4 05 May 09:34:39 09:39:25 40° 291° (WNW) 09:43:55 437.250
Oscar 11 05 May 09:39:07 09:41:33 15° 90° (E) 09:43:59 145.826/435.025
CUTE 1.7 + AOD 2 05 May 09:41:02 09:45:17 86° 108° (ESE) 09:49:31 437.475
M-CUBED/EXP-1 PRIME 05 May 09:46:59 09:50:05 23° 300° (WNW) 09:53:00 437.505
GOMX 1 05 May 09:53:21 09:56:51 18° 300° (WNW) 10:00:16 467.674
FUNcube-1 05 May 09:54:28 09:57:12 17° 92° (E) 09:59:54 145.935
CINEMA 3 05 May 09:57:51 10:02:26 64° 286° (WNW) 10:06:47 145.822/145.860
CUTE-I 05 May 09:59:22 09:59:44 10° 307° (NW) 10:00:05 437.470
UNISAT 6 05 May 10:01:11 10:05:00 26° 67° (ENE) 10:08:47 437.425
COMPASS 1 05 May 10:01:33 10:05:44 77° 102° (ESE) 10:09:54 437.405
SEEDS 05 May 10:03:20 10:07:32 74° 284° (WNW) 10:11:42 437.485
AUBIESAT-1 05 May 10:03:29 10:06:11 18° 302° (WNW) 10:08:46 437.475
UWE-3 05 May 10:13:00 10:17:02 42° 98° (E) 10:20:58 435.000/436.395/437.385
TIGRISAT 05 May 10:17:17 10:21:29 35° 69° (ENE) 10:25:37 435.000
CUBEBUG 2 05 May 10:26:16 10:30:37 86° 107° (ESE) 10:34:47 437.445
AAUSAT CUBESAT 2 05 May 10:29:42 10:33:49 64° 286° (WNW) 10:37:55 437.432
Cosmos 2504 05 May 10:30:54 10:33:15 12° 285° (WNW) 10:35:39 435.465 / 435.565
GONETS M04 05 May 10:34:30 10:41:14 24° 62° (ENE) 10:47:53
ZACube-1 05 May 10:37:16 10:41:22 52° 99° (E) 10:45:25 437.345
Cosmos 2499 05 May 10:40:46 10:43:59 13° 57° (ENE) 10:47:17 435.465 / 435.565
ANTELSAT 05 May 10:42:25 10:47:00 66° 74° (ENE) 10:51:32 437.575/2403.000
CANX-2 05 May 10:45:32 10:48:29 19° 295° (WNW) 10:51:26 2200.000
PHONESAT 2.4 05 May 10:46:56 10:49:49 34° 169° (S) 10:52:43 2401.200-2431.200
NANOSAT C BR1 05 May 10:47:03 10:49:32 15° 62° (ENE) 10:52:01 145.865
ISS 05 May 10:57:59 11:00:37 22° 7° (N) 11:03:17 145.825
HO-68 05 May 11:05:25 11:11:43 35° 299° (WNW) 11:18:01 435.675
Oscar 11 05 May 11:13:48 11:18:01 54° 287° (WNW) 11:22:13 145.826/435.025
HUMSAT D 05 May 11:16:15 11:20:01 35° 97° (E) 11:23:46 437.325/437.525
CUTE 1.7 + AOD 2 05 May 11:19:54 11:20:27 10° 300° (WNW) 11:21:01 437.475
DELFI C3 05 May 11:20:10 11:24:11 88° 282° (WNW) 11:28:11 145.870
AO-85 05 May 11:26:58 11:29:36 14° 106° (ESE) 11:32:14 145.980
FUNcube-1 05 May 11:29:43 11:33:42 42° 289° (WNW) 11:37:36 145.935
DUCHIFAT 1 05 May 11:36:11 11:40:15 44° 71° (ENE) 11:44:19 145.980
UNISAT 6 05 May 11:37:22 11:41:35 34° 263° (W) 11:45:45 437.425
COMPASS 1 05 May 11:39:29 11:40:42 11° 299° (WNW) 11:41:55 437.405
QB50P2 05 May 11:40:26 11:44:38 58° 73° (ENE) 11:48:52 145.880/145.840
AIST 1 05 May 11:41:12 11:45:34 57° 79° (E) 11:49:54
POLYITAN 1 05 May 11:42:37 11:46:50 59° 73° (ENE) 11:51:04 437.675
POPSAT HIP 1 05 May 11:44:26 11:48:39 60° 73° (ENE) 11:52:53 437.405
QB50P1 05 May 11:47:21 11:51:35 65° 74° (ENE) 11:55:51 145.935-145.965
UWE-3 05 May 11:50:14 11:53:12 19° 296° (WNW) 11:56:06 435.000/436.395/437.385
TIGRISAT 05 May 11:54:23 11:58:13 25° 265° (W) 12:02:00 435.000
50 SAT 05 May 12:01:17 12:03:32 15° 92° (E) 12:05:47 437.505
CUBEBUG 2 05 May 12:05:50 12:06:30 10° 301° (WNW) 12:07:10 437.445
BUGSAT 1 05 May 12:06:02 12:10:06 46° 71° (ENE) 12:14:11 437.445
CUBEBUG 1 05 May 12:06:41 12:09:47 18° 92° (E) 12:12:51 437.445
ESTCUBE 1 05 May 12:07:36 12:11:26 26° 95° (E) 12:15:15 437.505/2401.250
ZACube-1 05 May 12:14:47 12:17:15 15° 297° (WNW) 12:19:41 437.345
NANOSAT C BR1 05 May 12:20:37 12:24:49 57° 259° (W) 12:29:03 145.865
ANTELSAT 05 May 12:21:52 12:24:08 13° 270° (W) 12:26:23 437.575/2403.000
PHONESAT 2.4 05 May 12:23:24 12:26:23 40° 186° (S) 12:29:23 2401.200-2431.200
DX 1 05 May 12:28:07 12:31:50 26° 95° (E) 12:35:30 434.975-435.025
UKube-1 05 May 12:29:25 12:32:50 22° 94° (E) 12:36:13 .
GONETS M04 05 May 12:30:22 12:39:10 82° 264° (W) 12:47:51
Cosmos 2499 05 May 12:31:00 12:38:44 63° 78° (ENE) 12:47:02 435.465 / 435.565
JAS-2 05 May 12:33:22 12:38:53 34° 62° (ENE) 12:45:00 435.910
ISS 05 May 12:34:22 12:37:35 54° 26° (NNE) 12:40:48 145.825
VELOX 1 05 May 12:40:53 12:45:08 40° 98° (E) 12:49:20 145.980
HUMSAT D 05 May 12:52:24 12:55:27 21° 294° (WNW) 12:58:30 437.325/437.525
SPROUT 05 May 12:53:54 12:57:15 22° 94° (E) 13:00:34 437.525
AO-85 05 May 13:03:54 13:09:23 86° 123° (ESE) 13:14:48 145.980
Oscar 19 05 May 13:04:25 13:08:56 31° 66° (ENE) 13:13:30 437.125/150
AISAT 05 May 13:13:17 13:17:47 87° 285° (WNW) 13:22:15 437.250
DUCHIFAT 1 05 May 13:13:18 13:16:10 17° 268° (W) 13:19:02 145.980
AO-7 05 May 13:17:31 13:19:07 11° 36° (NE) 13:20:42 29.400- 29.500
TISAT 1 05 May 13:18:36 13:20:06 12° 89° (E) 13:21:35 437.305
QB50P2 05 May 13:18:37 13:20:49 14° 270° (W) 13:23:01 145.880/145.840
AIST 1 05 May 13:20:27 13:22:38 14° 276° (W) 13:24:49
POLYITAN 1 05 May 13:20:53 13:23:02 13° 270° (W) 13:25:10 437.675
POPSAT HIP 1 05 May 13:22:45 13:24:49 13° 270° (W) 13:26:54 437.405
Gurwin Techsat 1B 05 May 13:23:08 13:27:01 21° 61° (ENE) 13:30:54 435.225
QB50P1 05 May 13:26:06 13:27:48 12° 271° (W) 13:29:30 145.935-145.965
50 SAT 05 May 13:34:05 13:37:29 36° 288° (WNW) 13:40:51 437.505
